Content
SEND FEEDBACK

Daily
Averages
Monthly
Summary
United States of America

ASHEVILLE, NORTH CAROLINA


Home > North America > United States > North Carolina
Elevation: 2240 feet     Latitude: 35 36N     Longitude: 082 32W

WEATHER
 
SELECT A DAY
Number of Records: 226,235;   Date Range: 1/1/95 - 8/25/14
 
SHARE

PRINT THIS DATA

[ ← Previous Day ]
WEATHER ALMANAC - FEBRUARY 1, 2013
[ Next Day → ]
[ °C ]   °F
Weather ElementAverageHighLow
Temperature28.5 °F43 °F (2:54 am)21 °F (10:54 pm)
Dewpoint14.1 °F30.9 °F (4:54 am)6.8 °F (4:54 pm)
Humidity56.3 %89 % (4:54 am)40 % (3:54 pm)
Barometer30.16 in30.36 in (11:54 pm)29.89 in (3:54 am)
Wind Speed13.7 mph19.6 mph (5:54 am)
Wind Gust47.2 mph (3:54 am)
Weather ElementAverage
Visibility9.1 mi
Wind DirectionWNW (296.5 °)

Weather ElementTotal
Precipitation---
Heating Degree Days33 (Base 65)
Averaged from 26 records on February 1, 2013
WEATHER CONDITIONS BREAKOUT
WIND DIRECTION BREAKOUT
WEATHER BY HOUR - FEBRUARY 1, 2013
[ °C ]   °F
Local TimeTemperatureDewpointHumidityBarometerVisibilityWind DirectionWind SpeedGust SpeedPrecipitationEventsConditions
1:54 AM42.1 °F21.0 °F43 %29.93 in10.0 miWest (260°)15.0 mph25.3 mphMostly Cloudy
2:54 AM43.0 °F23.0 °F45 %29.91 in10.0 miWest (280°)12.7 mph27.6 mphOvercast
3:54 AM43.0 °F23.0 °F45 %29.89 in10.0 miWNW (290°)17.3 mph47.2 mphOvercast
4:47 AM35.6 °F30.2 °F81 %29.93 in5.0 miNNW (340°)13.8 mph25.3 mph0.00 inSnowLight Snow
4:54 AM34.0 °F30.9 °F89 %29.95 in2.5 miNNW (330°)16.1 mph25.3 mph0.00 inSnowLight Snow
5:06 AM33.8 °F30.2 °F87 %29.94 in3.0 miNNW (330°)13.8 mph0.00 inSnowLight Snow
5:16 AM33.8 °F28.4 °F81 %29.95 in7.0 miNW (320°)11.5 mph19.6 mph0.00 inSnowLight Snow
5:54 AM30.0 °F25.0 °F82 %30.01 in9.0 miNorth (350°)19.6 mph28.8 mph0.00 inOvercast
6:54 AM27.0 °F12.0 °F53 %30.07 in10.0 miNNW (340°)19.6 mph27.6 mphClear
7:54 AM24.1 °F12.0 °F60 %30.13 in10.0 miNorth (350°)17.3 mph25.3 mphClear
8:54 AM24.8 °F10.4 °F54 %30.13 in10.0 miNorth (350°)18.4 mph26.5 mphClear
9:54 AM23.0 °F10.9 °F60 %30.23 in10.0 miNorth (360°)18.4 mph27.6 mphClear
10:54 AM24.1 °F10.0 °F55 %30.26 in10.0 miNorth (10°)10.4 mph23.0 mphClear
11:54 AM24.8 °F8.6 °F50 %30.22 in10.0 miNorth (350°)9.2 mph23.0 mphClear
12:54 PM26.1 °F8.1 °F47 %30.27 in10.0 miNorth (360°)15.0 mph26.5 mphClear
1:54 PM27.0 °F8.1 °F45 %30.25 in10.0 miNorth (360°)13.8 mph21.9 mphClear
2:54 PM28.9 °F8.1 °F41 %30.24 in10.0 miNorth (350°)11.5 mph20.7 mphClear
3:54 PM28.9 °F7.0 °F40 %30.25 in10.0 miNorth (10°)12.7 mph18.4 mphClear
4:54 PM28.4 °F6.8 °F40 %30.23 in10.0 miNorth (350°)11.5 mph19.6 mphClear
5:54 PM26.6 °F6.8 °F43 %30.23 in10.0 miNorth (350°)16.1 mphClear
6:54 PM24.1 °F7.0 °F48 %30.31 in10.0 miNNW (330°)11.5 mphClear
7:54 PM23.0 °F7.0 °F50 %30.33 in10.0 miNNW (330°)15.0 mphClear
8:54 PM21.9 °F7.0 °F53 %30.35 in10.0 miNNW (340°)12.7 mphClear
9:54 PM21.9 °F8.1 °F55 %30.35 in10.0 miNNW (340°)11.5 mphClear
10:54 PM21.0 °F8.1 °F57 %30.35 in10.0 miVariable4.6 mphClear
11:54 PM21.0 °F9.0 °F60 %30.36 in10.0 miNNW (330°)6.9 mphClear
Hourly data recorded from KAVL, located miles away from Asheville, North Carolina







STORIES FROM OUR PARTNERS